Location: ??????
(42.0089°N, 44.3281°E)
Time: 15:25:54
(UTC+00:00)

CZ-4 R/B - Pass Details

Date: 24 October 2021
Orbit: 530 x 595 km, 97.8° (Epoch: 07 December)

Event Time Altitude Azimuth Distance (km) Brightness Sun altitude
Exits shadow 16:25:20 10° 196° (SSW) 1,844 4.1 -26.2°
Maximum altitude 16:29:01 35° 263° (W) 925 2.9 -26.9°
Drops below altitude 10° 16:32:48 10° 330° (NNW) 1,898 4.5 -27.6°
Sets 16:35:08 0° 339° (NNW) 2,813 5.3 -28.0°
